{"data":{"norad_id":57449,"epoch":"2026-05-25T04:39:40.917312Z","epoch_age_seconds":55288,"freshness":"FRESH","line1":"1 57449U 23105V   26145.19422358  .00002131  00000+0  86953-4 0  9993","line2":"2 57449  43.0036 191.0668 0001680 272.3718  87.6941 15.27579784157309","mean_motion":15.27579784,"eccentricity":0.000168,"inclination_deg":43.0036,"raan_deg":191.0668,"arg_perigee_deg":272.3718,"mean_anomaly_deg":87.6941,"bstar":8.6953e-5,"rev_number":15730,"period_min":94.266762042983,"perigee_km":481.89706344864,"apogee_km":484.20242219423,"semimajor_km":6861.1867428214,"source":"CELESTRAK","updated_at":"2026-05-25T13:38:18.322316Z"}}